Regional Weather Roundup
Issued by NWS

Home | Current Version | Previous Version | Text Only | Print | Product List | Glossary Off
Versions: 1 2 3 4 5 6 7 8 9 10 11 12 13 14 15 16 17 18 19 20 21 22 23 24 25 26 27 28 29 30 31 32 33 34 35 36 37 38 39 40 41 42 43 44 45 46 47 48 49 50

000
ASUS43 KFSD 250310
RWRSD

WEATHER ROUNDUP FOR SOUTH DAKOTA
NATIONAL WEATHER SERVICE SIOUX FALLS SD
1000 PM CDT TUE MAY 24 2016

NOTE: "FAIR" INDICATES FEW OR NO CLOUDS BELOW 12,000 FEET WITH NO
SIGNIFICANT WEATHER AND/OR OBSTRUCTIONS TO VISIBILITY.


SDZ001>005-009-010-012>017-250400-
NORTHWEST AND NORTH CENTRAL SOUTH DAKOTA

CITY           SKY/WX    TMP DP  RH WIND       PRES   REMARKS
BUFFALO          N/A     63  42  46 S13       29.76S
FAITH            N/A     57  49  74 S18       29.89R
MOBRIDGE       CLOUDY    70  52  52 E12       29.79R
$$

SDZ012>016-024>037-041>051-057-063-072>074-250400-
SOUTHWEST AND SOUTH CENTRAL SOUTH DAKOTA

CITY           SKY/WX    TMP DP  RH WIND       PRES   REMARKS
RAPID CTY ARPT CLOUDY    57  48  72 S8        29.84R
PIERRE         CLOUDY    70  50  49 NE16      29.74F
CUSTER         CLOUDY    48  43  82 E7        29.88F
ELLSWORTH AFB  CLOUDY    55  51  88 NW6       29.83R
PHILIP         TSTM      57  55  93 NW17G28   29.93R FOG
PINE RIDGE     LGT RAIN  54  49  83 NW5       29.93R
WINNER         MOCLDY    68  55  63 SE9       29.77R
$$

SDZ004>011-016>023-039-040-250400-
NORTHEAST SOUTH DAKOTA

CITY           SKY/WX    TMP DP  RH WIND       PRES   REMARKS
ABERDEEN       MOCLDY    69  45  41 NE6       29.81S
WATERTOWN      PTCLDY    72  45  37 E5        29.85R
BROOKINGS      CLOUDY    74  46  36 E5        29.85R
SISSETON         N/A     67  47  48 W3        29.82R
$$

SDZ017-020-022-023-036>040-048>070-250400-
SOUTHEAST SOUTH DAKOTA

CITY           SKY/WX    TMP DP  RH WIND       PRES   REMARKS
SIOUX FALLS    PTCLDY    74  59  59 SE12      29.84S
HURON          CLOUDY    69  53  56 E7        29.80S
CHAMBERLAIN    CLOUDY    70  59  67 E8        29.78S
MITCHELL       CLOUDY    70  58  65 E8        29.80R
YANKTON        PTCLDY    73  59  60 SE13      29.82R
$$

ABBREVIATIONS USED IN REMARKS
   TC - TEMPERATURE IN CELSIUS
  WCI - WIND CHILL INDEX
   HX - HEAT INDEX
  VSB - VISIBILITY





USA.gov is the U.S. government's official web portal to all federal, state and local government web resources and services.